Flagstaff, AZ

11:54 AM MST on June 28, 2017 (GMT -0700)
Flagstaff Pulliam

Weather History for KFLG - July, 2013

Change the Weather History Date:

Thursday, July 25, 2013

  Actual Average Record
Temperature  
Mean Temperature 66 °F 66 °F  
Max Temperature 77 °F 81 °F 92 °F (1931)
Min Temperature 55 °F 52 °F 41 °F (1913)
Degree Days  
Heating Degree Days 0 1  
Month to date heating degree days 6 30  
Since 1 July heating degree days 6 30  
Cooling Degree Days 1 2  
Month to date cooling degree days 71 50  
Year to date cooling degree days 121 67  
Growing Degree Days 15 (Base 50)    
Moisture  
Dew Point 57 °F    
Average Humidity 77    
Maximum Humidity 97    
Minimum Humidity 57    
Precipitation  
Precipitation 1.34 in 0.11 in 1.35 in (2003)
Month to date precipitation 6.46 1.92  
Year to date precipitation 11.72 10.39  
Snow  
Snow 0.00 in 0.00 in 0.00 in (2002)
Month to date snowfall 0.0 0.0  
Since 1 July snowfall 0.0 0.0  
Snow Depth 0.00 in    
Sea Level Pressure  
Sea Level Pressure 30.12 in    
Wind  
Wind Speed 3 mph (WSW)    
Max Wind Speed 16 mph    
Max Gust Speed 23 mph    
Visibility 9 miles    
Events Rain , Thunderstorm    
T = Trace of Precipitation, MM = Missing Value Source: NWS Daily Summary

Daily Weather History Graph

Daily Weather History Graph

Search for Another Location

Airport or City:

Trip Planner

Search our weather history database for the weather conditions in past years. The results will help you decide how hot, cold, wet, or windy it might be!

Date:

Astronomy

Jul. 25, 2013 Rise Set
Actual Time 5:30 AM MST 7:35 PM MST
Civil Twilight 5:02 AM MST 8:03 PM MST
Nautical Twilight 4:27 AM MST 8:37 PM MST
Astronomical Twilight 3:50 AM MST 9:14 PM MST
Moon 9:29 PM MST (7/25) 8:54 AM MST (7/25)
Length of Visible Light 15h 00m
Length of Day
14h 04m
Waning Gibbous, 87% of the Moon is Illuminated
Jul 25
Waning Gibbous
Jul 29
Last Quarter
Aug 6
New
Aug 14
First Quarter
Aug 20
Full

Hourly Weather History & Observations

Time (MST) Temp. Dew Point Humidity Pressure Visibility Wind Dir Wind Speed Gust Speed Precip Events Conditions
12:17 AM 62.6 °F 51.8 °F 68% 30.29 in 2.0 mi West 6.9 mph 16.1 mph 0.13 in Rain Rain
12:26 AM 60.8 °F 55.4 °F 82% 30.28 in 10.0 mi West 6.9 mph - 0.13 in Rain Light Rain
12:57 AM 60.1 °F 55.0 °F 83% 29.98 in 10.0 mi West 3.5 mph - 0.13 in   Scattered Clouds
1:57 AM 62.1 °F 55.9 °F 80% 30.02 in 10.0 mi ENE 4.6 mph - N/A   Overcast
2:57 AM 60.1 °F 57.9 °F 93% 30.04 in 10.0 mi Calm Calm - 0.02 in   Overcast
3:57 AM 59.0 °F 57.0 °F 93% 29.99 in 10.0 mi Calm Calm - 0.05 in   Mostly Cloudy
4:57 AM 59.0 °F 57.0 °F 93% 30.01 in 10.0 mi Calm Calm - N/A   Partly Cloudy
5:57 AM 59.0 °F 57.0 °F 93% 30.02 in 10.0 mi West 3.5 mph - N/A   Overcast
6:57 AM 61.0 °F 57.9 °F 90% 30.02 in 10.0 mi Calm Calm - N/A   Overcast
7:57 AM 64.9 °F 60.1 °F 84% 30.04 in 10.0 mi Calm Calm - N/A   Partly Cloudy
8:57 AM 71.1 °F 57.9 °F 63% 30.02 in 10.0 mi Variable 3.5 mph - N/A   Clear
9:57 AM 73.9 °F 57.9 °F 57% 30.02 in 10.0 mi WSW 6.9 mph - N/A   Clear
10:57 AM 75.9 °F 61.0 °F 60% 30.02 in 10.0 mi SSW 10.4 mph - N/A   Clear
11:32 AM 75.2 °F 59.0 °F 57% 30.34 in 10.0 mi South 6.9 mph - N/A Thunderstorm Thunderstorm
11:57 AM 64.0 °F 57.0 °F 78% 30.07 in 6.0 mi North 11.5 mph 23.0 mph N/A Rain , Thunderstorm Heavy Thunderstorms and Rain
12:05 PM 62.6 °F 57.2 °F 82% 30.37 in 6.0 mi WNW 10.4 mph - 0.05 in Rain , Thunderstorm Heavy Thunderstorms and Rain
12:22 PM 55.4 °F 53.6 °F 94% 30.38 in 1.0 mi ENE 4.6 mph 17.3 mph 0.80 in Rain , Thunderstorm Heavy Thunderstorms and Rain
12:30 PM 55.4 °F 55.4 °F 100% 30.37 in 6.0 mi Calm Calm - 1.01 in Rain , Thunderstorm Heavy Thunderstorms and Rain
12:57 PM 59.0 °F 57.0 °F 93% 30.10 in 6.0 mi SSW 4.6 mph - 1.11 in Rain , Thunderstorm Light Thunderstorms and Rain
1:04 PM 60.8 °F 57.2 °F 88% 30.37 in 10.0 mi SW 8.1 mph - 0.00 in Rain Light Rain
1:57 PM 59.0 °F 57.0 °F 93% 30.09 in 10.0 mi NW 4.6 mph - 0.00 in   Overcast
2:57 PM 61.0 °F 57.9 °F 90% 30.07 in 10.0 mi South 5.8 mph - N/A   Partly Cloudy
3:57 PM 64.0 °F 60.1 °F 87% 30.05 in 10.0 mi Calm Calm - N/A   Clear
4:57 PM 63.0 °F 59.0 °F 87% 30.10 in 10.0 mi Calm Calm - N/A   Partly Cloudy
5:57 PM 63.0 °F 57.9 °F 84% 30.09 in 10.0 mi Calm Calm - N/A   Overcast
6:57 PM 63.0 °F 57.9 °F 84% 30.09 in 10.0 mi Calm Calm - N/A   Partly Cloudy
7:57 PM 61.0 °F 59.0 °F 93% 30.11 in 10.0 mi East 5.8 mph - N/A   Mostly Cloudy
8:57 PM 62.1 °F 57.9 °F 86% 30.05 in 10.0 mi West 5.8 mph - N/A   Clear
9:57 PM 62.1 °F 57.9 °F 86% 30.09 in 10.0 mi WNW 3.5 mph - N/A   Clear
10:57 PM 61.0 °F 59.0 °F 93% 30.07 in 10.0 mi WSW 4.6 mph - N/A   Clear
11:57 PM 60.1 °F 57.9 °F 93% 30.12 in 10.0 mi WNW 3.5 mph - N/A   Clear